Regional Weather Roundup
Issued by NWS

Home | Current Version | Previous Version | Text Only | Print | Product List | Glossary On
Versions: 1 2 3 4 5 6 7 8 9 10 11 12 13 14 15 16 17 18 19 20 21 22 23 24 25 26 27 28 29 30 31 32 33 34 35 36 37 38 39 40 41 42 43 44 45 46 47 48 49 50
000
ASUS43 KLMK 180002
RWRKY
KENTUCKY REGIONAL WEATHER ROUNDUP
NATIONAL WEATHER SERVICE LOUISVILLE KY
800 PM EDT WED SEP 17 2014

NOTE "FAIR" INDICATES FEW OR NO CLOUDS BELOW 12,000 FEET
WITH NO SIGNIFICANT WEATHER AND/OR OBSTRUCTIONS TO VISIBILITY.

KYZ001>023-026-027-061>063-070>075-180100-
WESTERN AND SOUTH CENTRAL KENTUCKY

CITY           SKY/WX    TMP DP  RH WIND       PRES   REMARKS
PADUCAH        CLOUDY    70  59  68 SW3       29.95S
HENDERSON      CLOUDY    64  55  72 CALM      29.96R
OWENSBORO      PTCLDY    68  54  60 CALM      29.96R
HOPKINSVILLE   MOCLDY    67  58  72 SW6       29.97R
BOWLING GREEN  PTCLDY    68  55  63 CALM      29.96R
GLASGOW        PTCLDY    63  55  76 CALM      29.96R
$$

KYZ024-025-028>034-038-045-046-053-180100-
NORTH CENTRAL KENTUCKY

CITY           SKY/WX    TMP DP  RH WIND       PRES   REMARKS
LOUISVILLE/SDF PTCLDY    66  52  60 NE7       29.96S
LOUISVILLE/LOU CLEAR     65  52  62 NE5       29.97R
FORT KNOX      PTCLDY    63  55  76 N5        29.95S
$$

KYZ035>037-039>044-047>052-055>060-089>105-180100-
NORTHEAST KENTUCKY

CITY           SKY/WX    TMP DP  RH WIND       PRES   REMARKS
LEXINGTON      CLEAR     64  52  64 NE5       29.98S
COVINGTON      PTCLDY    63  48  58 CALM      29.98S
FRANKFORT      CLEAR     65  53  65 CALM      29.96F
$$

KYZ054-064>069-076>088-106>120-180100-
SOUTHEAST KENTUCKY

CITY           SKY/WX    TMP DP  RH WIND       PRES   REMARKS
JACKSON        CLEAR     61  54  77 CALM      29.98S
LONDON         MOCLDY    66  55  67 CALM      30.00R
SOMERSET       NOT AVBL
MIDDLESBORO    CLEAR     63  57  80 CALM      29.99R
MONTICELLO     CLEAR     62  57  83 CALM      30.00S
$$



USA.gov is the U.S. government's official web portal to all federal, state and local government web resources and services.